Lid_Strength_Index
2 2 2 1 2 4 5 5 9 5 4 7 7 9 7 8 8 7 8 8 8 9 10 11 11 11 12 11 11 13 13 14 16 17 16 15 16 16 16 18 18 19 20 20
2 2 2 1 2 5 5 7 6 5 5 10 9 7 8 8 8 9 9 9 8 9 10 12 11 11 11 11 12 13 13 15 17 19 18 16 17 16 16 16 17 19 21 18
3 2 2 2 2 4 5 6 8 7 6 6 8 8 8 9 8 8 8 9 8 10 11 10 12 12 12 12 12 12 13 14 15 17 17 16 18 17 17 17 19 18 18 18
3 3 3 3 2 3 5 6 7 8 9 9 8 7 7 9 10 10 9 10 9 10 12 11 12 12 14 13 12 13 14 15 15 15 15 16 16 16 17 20 17 20 17 18
4 3 3 3 3 3 6 7 7 7 8 8 8 8 8 8 8 10 11 10 9 9 10 10 11 12 13 14 13 14 14 15 16 16 15 17 17 16 16 17 16 17 16 17
4 4 3 3 4 4 4 5 6 8 8 9 9 8 8 8 7 9 10 10 9 10 10 11 11 11 11 12 13 15 15 15 17 18 17 17 18 16 16 16 15 16 19 17
4 4 4 3 3 4 4 4 5 9 10 9 9 8 7 7 8 9 10 10 10 11 10 10 11 12 12 12 14 13 14 15 16 18 17 19 16 16 15 15 14 15 16 16
4 4 4 4 3 4 4 3 5 6 10 8 8 9 9 10 10 11 11 12 11 10 11 13 15 15 15 15 14 15 14 14 16 18 17 15 17 17 17 16 16 13 15 15
4 4 4 4 4 4 4 4 3 6 8 10 8 9 10 11 11 13 13 12 11 10 11 12 15 16 14 18 17 15 15 15 16 18 19 19 16 16 15 15 18 14 14 15
4 4 4 4 3 4 4 5 3 5 7 7 10 10 11 9 10 12 14 13 13 11 11 14 15 13 12 17 18 20 19 18 19 18 18 15 15 15 15 18 15 15 14 15
4 4 4 4 4 5 5 5 6 6 7 7 11 10 10 10 9 12 13 13 13 14 13 13 13 13 14 14 15 17 18 18 19 17 17 19 15 17 17 14 16 15 15 15
4 4 4 4 4 6 5 7 7 7 9 10 11 11 10 10 11 10 11 10 12 11 12 11 11 14 15 13 16 13 16 13 15 14 15 14 15 15 15 14 15 15 16 15
5 4 4 4 4 4 5 6 7 8 10 9 12 12 11 11 10 10 11 11 9 10 9 9 11 13 12 15 14 16 15 13 15 15 13 14 14 15 14 15 15 14 15 15
5 5 4 4 4 4 5 6 5 8 9 11 11 11 12 10 11 10 10 10 9 9 8 13 12 12 12 12 13 13 14 14 14 14 13 14 13 13 14 15 14 14 15 15
5 5 4 4 4 5 5 6 5 6 8 13 12 13 12 11 11 11 10 10 10 10 11 11 12 12 14 14 15 15 14 14 14 14 11 12 12 12 13 15 15 15 15 16
5 5 4 4 4 5 6 9 6 7 7 11 13 12 13 11 11 11 11 10 10 9 10 10 12 14 14 16 16 11 12 12 11 11 11 13 14 12 13 14 15 15 15 15
5 5 5 5 4 5 9 8 7 6 7 12 14 14 13 11 11 12 12 11 11 10 11 13 12 15 14 14 14 10 11 12 12 13 13 15 13 14 13 14 15 13 15 15
5 5 5 5 4 5 8 6 5 6 10 10 15 14 15 12 14 15 11 12 12 11 11 14 14 16 15 17 13 11 10 11 12 13 14 14 13 13 14 14 15 16 16 16
5 5 5 5 6 8 7 5 6 6 9 14 15 15 16 14 14 14 14 11 14 13 14 13 14 15 17 14 13 12 11 11 11 13 14 13 14 14 14 14 15 16 17 17
5 5 7 10 6 3 5 8 9 10 11 12 14 12 16 14 14 14 14 14 13 16 14 14 16 15 11 11 10 11 10 10 12 15 16 15 15 14 15 15 15 15 16 17
5 8 9 6 4 5 8 12 13 12 14 13 13 11 16 14 15 14 14 16 15 18 14 15 16 17 13 10 9 9 9 9 10 10 11 12 13 13 14 14 14 15 16 17
7 7 6 6 9 11 12 13 13 13 12 12 12 13 13 15 13 14 15 15 16 18 15 17 18 13 10 10 9 8 8 9 9 11 11 12 12 13 13 14 14 16 16 16
5 9 11 11 11 14 14 15 13 13 10 13 13 15 14 15 13 14 14 16 17 15 18 18 16 11 10 10 9 10 10 9 10 11 11 12 12 12 13 14 14 15 16 16
11 14 17 13 14 14 12 11 12 9 9 11 12 14 13 14 14 15 15 14 16 19 19 17 13 11 10 9 10 10 10 10 10 11 11 13 13 13 13 14 14 16 17 16
13 13 17 14 11 10 10 9 9 9 8 9 12 13 12 14 15 15 16 18 18 17 16 13 10 10 10 10 11 11 11 11 11 12 12 13 13 13 14 14 14 15 17 16
12 14 15 13 12 12 10 10 10 9 9 9 11 14 14 14 14 17 16 16 17 15 13 11 11 12 12 12 12 11 11 11 12 12 12 12 13 13 14 14 15 16 16 16
14 15 12 12 12 12 11 11 10 8 10 11 12 13 14 14 14 14 14 15 11 10 10 11 12 13 14 14 14 13 12 12 13 13 13 13 13 13 14 16 15 16 16 16